Flag for U.S.A. Weather past 2 weeks in Houston, Texas, U.S.A.

Now
82 °F

Scattered clouds.


Feels Like: 85 °F
Forecast: 71 / 91 °F
Wind: 6 mph from South

Location: Houston Hobby Airport

Current Time: Aug 28, 2015 at 8:22:50 PM

Latest Report: Aug 28, 2015 at 7:53 PM


Visibility: 10 mi

Pressure: 29.95 "Hg

Humidity: 65%

Dew point: 69 °F

Location of HoustonLocation

Historic Weather in Houston — Graph

°F

Houston temperature yesterday

Maximum temperature yesterday: 91 °F (at 4:53 PM)
Minimum temperature yesterday: 72 °F (at 2:53 AM)
Average temperature yesterday: 81 °F

Past Weeks' High & Low Weather Summary

 TemperatureHumidityPressure
High97 °F (Aug 14, 4:53 PM)98% (Aug 16, 3:53 AM)30.14 "Hg (Aug 16, 3:53 AM)
Low72 °F (Aug 27, 2:53 AM)32% (Aug 14, 4:53 PM)29.79 "Hg (Aug 19, 6:53 PM)
Average82 °F74%29.97 "Hg
* Reported Aug 13 6:53 PM — Aug 28 6:53 PM, Houston, Weather by CustomWeather, © 2015

Note: Actual official high and low records may vary slightly from our data, if they occured in-between our weather recording intervals... More about our weather records

Advertising

Houston weather history for previous 24 hours

 ConditionsComfort  
Time TempWeatherWind HumidityBarometerVisibility
6:53 PM
Fri, Aug 28
86 °FPassing clouds.6 mph51%29.94 "Hg10 mi
5:53 PM88 °FPassing clouds.7 mph52%29.95 "Hg10 mi
4:53 PM89 °FScattered clouds.5 mph48%29.96 "Hg10 mi
3:53 PM90 °FScattered clouds.No wind45%29.97 "Hg10 mi
2:53 PM88 °FScattered clouds.No wind46%29.98 "Hg10 mi
1:53 PM87 °FScattered clouds.5 mph48%30.00 "Hg10 mi
12:53 PM87 °FScattered clouds.No wind50%30.02 "Hg10 mi
11:53 AM86 °FScattered clouds.6 mph53%30.03 "Hg10 mi
10:53 AM85 °FPassing clouds.3 mph59%30.03 "Hg10 mi
9:53 AM82 °FPassing clouds.3 mph67%30.03 "Hg10 mi
8:53 AM80 °FSunny.No wind69%30.02 "Hg10 mi
7:53 AM76 °FPassing clouds.3 mph80%30.01 "Hg10 mi
6:53 AM73 °FPassing clouds.No wind84%29.99 "Hg10 mi
5:53 AM74 °FPassing clouds.No wind82%29.98 "Hg10 mi
4:53 AM72 °FPassing clouds.No wind87%29.97 "Hg10 mi
3:53 AM73 °FPassing clouds.No wind84%29.96 "Hg10 mi
2:53 AM74 °FPassing clouds.No wind79%29.98 "Hg10 mi
1:53 AM75 °FPassing clouds.3 mph76%29.99 "Hg10 mi
12:53 AM74 °FPassing clouds.No wind79%30.01 "Hg10 mi
11:53 PM
Thu, Aug 27
77 °FPassing clouds.3 mph71%30.01 "Hg10 mi
10:53 PM78 °FPassing clouds.5 mph66%30.01 "Hg10 mi
9:53 PM78 °FPassing clouds.3 mph71%30.00 "Hg10 mi
8:53 PM80 °FPassing clouds.5 mph64%29.98 "Hg10 mi
Weather by CustomWeather, © 2015

See weather overviewHow to use our weather pages